Regional Weather Roundup
Issued by NWS Wilmington, NC

Home | Current Version | Previous Version | Text Only | Print | Product List | Glossary On
Versions: 1 2 3 4 5 6 7 8 9 10 11 12 13 14 15 16 17 18 19 20 21 22 23 24 25 26 27 28 29 30 31 32 33 34 35 36 37 38 39 40 41 42 43 44 45 46 47 48 49 50
000
ASUS42 KILM 280913
RWRILM
RWRILM
REGIONAL HOURLY WEATHER ROUNDUP
NATIONAL WEATHER SERVICE WILMINGTON NC
500 AM EDT WED JUN 28 2017

NOTE: "FAIR" INDICATES FEW OR NO CLOUDS BELOW 12,000 FEET WITH NO
SIGNIFICANT WEATHER AND/OR OBSTRUCTIONS TO VISIBILITY.

...............WFO WILMINGTON COUNTY WARNING AREA...............

......COASTAL NC AND SC COUNTIES......

CITY           SKY/WX    TMP DP  RH WIND       PRES   REMARKS
WILMINGTON     CLEAR     67  59  75 NE5       30.10R
N MYRTLE BEACH CLEAR     68  62  81 NE7       30.09S
MYRTLE BEACH   CLEAR     70  61  73 NE8       30.11R

......INLAND NC AND SC COUNTIES.......

CITY           SKY/WX    TMP DP  RH WIND       PRES   REMARKS
LUMBERTON      CLEAR     61  59  93 CALM      30.11S
ELIZABETHTOWN  NOT AVBL
WHITEVILLE     CLEAR     63  61  93 CALM      30.11S
FLORENCE       PTCLDY    64  58  80 NE5       30.12R
DARLINGTON     CLEAR     62  60  93 CALM      30.13R
KINGSTREE      FAIR      64  59  82 CALM      30.10S
HARTSVILLE     FAIR      61  54  77 CALM      30.12R
BENNETTSVILLE  FAIR      61  59  94 CALM      30.11S
CONWAY         FAIR      63  61  94 CALM      30.10S
GEORGETOWN     FAIR      68  64  88 NE5       30.10R
MARION         FAIR      63  59  88 NE3       30.11S

....................REST OF NORTH CAROLINA......................

.........EASTERN NC.........

CITY           SKY/WX    TMP DP  RH WIND       PRES   REMARKS
CAPE HATTERAS  NOT AVBL
JACKSONVILLE   CLEAR     60  59  96 CALM      30.12R
MOREHEAD CITY  CLEAR     69  62  78 NE6       30.10R
KENANSVILLE    CLEAR     57  57 100 CALM      30.12S
NEW BERN       CLEAR     62  61  96 CALM      30.12R
ELIZABETH CITY CLEAR     62  60  93 W5        30.10R

.........CENTRAL NC.........

CITY           SKY/WX    TMP DP  RH WIND       PRES   REMARKS
RALEIGH DURHAM PTCLDY    60  56  86 N3        30.16R
ROCKY MOUNT    CLEAR     63  57  81 N8        30.13R
ROANOKE RAPIDS NOT AVBL
FAYETTEVILLE   CLEAR     63  59  87 CALM      30.12R
HOFFMAN        CLEAR     56  55  97 CALM      30.13R

.........WESTERN NC.........

CITY           SKY/WX    TMP DP  RH WIND       PRES   REMARKS
CHARLOTTE      PTCLDY    62  55  77 N6        30.14R
GREENSBORO     CLEAR     60  53  77 NE3       30.16R
HICKORY        NOT AVBL
BOONE          NOT AVBL
ASHEVILLE      NOT AVBL

.....................REST OF SOUTH CAROLINA.....................

.........EASTERN SC.........

CITY           SKY/WX    TMP DP  RH WIND       PRES   REMARKS
CHARLESTON     PTCLDY    70  66  87 N5        30.08R
BEAUFORT MCAS  CLOUDY    74  71  91 N6        30.07S
HILTON HEAD    CLOUDY    75  73  94 N7        30.08R

.........CENTRAL SC.........

CITY           SKY/WX    TMP DP  RH WIND       PRES   REMARKS
COLUMBIA       PTCLDY    70  59  68 CALM      30.10S
ORANGEBURG     CLOUDY    68  63  84 E5        30.11R
SUMTER SHAW    CLEAR     66  58  74 CALM      30.10R

.........WESTERN SC.........

CITY           SKY/WX    TMP DP  RH WIND       PRES   REMARKS
GREENVILLE     NOT AVBL
ROCK HILL      CLEAR     58  56  93 NE6       30.15R
ANDERSON       CLEAR     62  55  77 CALM      30.13R
CLEMSON        NOT AVBL
GREENWOOD      CLEAR     61  57  87 CALM      30.13S


...................COASTAL AND OFFSHORE REPORTS..................

................LOCAL PIERS AND NC RESERVE................


STATION/POSITION TIME  SKY/WX   TEMP    WIND        PRES    VSBY
                                AIR SEA DIR/SP/G
                 (UTC)          (F)     (DEG/KT/KT) (MB)    (MI)
JOHNY MRCER PIER 0836            71 80   10/  7/  9 1018.3R
NC RESRV MASNBRO 0745            70      50/  1     1020.0
OCEAN CREST PIER NOT AVBL
SPRINGMAID  PIER 0848                               1018.4R


................COASTAL AND OFFSHORE BUOYS................


STATION/POSITION TIME  SKY/WX   TEMP    WIND        PRES    VSBY
                                AIR SEA DIR/SP/G
                 (UTC)          (F)     (DEG/KT/KT) (MB)    (MI)
DIMNDSHOAL 41025 0850            76 80  360/ 12/ 14 1018.4R
WVE H/P(F/S)=  2/ 3 SWL H/P/D(F/S/D)=  2/110/ 6

CAPE LOOKOUT     0900            75      10/  9/ 11 1018.9R
ONSLOW BAY 41036 NOT AVBL
ONSLOW BAY 41064 0808            77 81   30/ 16/ 19 1018.7R
ONSLOW BAY 41159 0843               80                N/A
WVE H/P(F/S)=  3/ 4

MASNBO INL 41110 0859               79                N/A
WVE H/P(F/S)=  2/ 4

WILM HARBR 41108 NOT AVBL
27SE WRITB 41037 0808            78 80   50/ 16/ 21 1018.1R
FRYING PAN 41013 0900            79 81   30/ 17/ 19 1018.1
SUNST NRSH 41024 0808            74 79   50/ 10/ 14 1018.7R
CAPRS NRSH 41029 0808            84 83  360/ 10/ 12 1017.9F
EDISTO     41004 0900            79 81   20/ 10/ 12 1017.8


..........OFFSHORE BUOYS BEYOND 100 NM OFFSHORE...........
.....IN A TRIANGLE---HAT TO BERMUDA TO BAHAMAS TO HAT.....


STATION/POSITION TIME  SKY/WX   TEMP    WIND        PRES    VSBY
                                AIR SEA DIR/SP/G
                 (UTC)          (F)     (DEG/KT/KT) (MB)    (MI)
150E HAT   41001 0900            78 79  350/ 10/ 12 1017.6
W BERMUDA  41048 0900            80 81  210/ 16/ 17 1017.0
ATLANTIC S 41049 0850            80 82  110/  8/ 10 1020.5R
WVE H/P(F/S)=  3/ 8 SWL H/P/D(F/S/D)=  3/170/ 8

E BAHAMAS  41046 0900            81 83   90/  8/ 12 1018.5
NE BAHAMAS 41047 0900            82 83  180/ 12/ 14 1018.0
120E CANVRL41010 0900            83 83  180/  8/ 10 1015.1

END



USA.gov is the U.S. government's official web portal to all federal, state and local government web resources and services.